Weather History for KCVX - May, 2013

Change the Weather History Date:

Tuesday, May 28, 2013

  Actual Average Record
Temperature  
Mean Temperature 56 °F -  
Max Temperature 59 °F 68 °F 86 °F (2012)
Min Temperature 52 °F 51 °F 33 °F (2008)
Degree Days  
Heating Degree Days 10    
Growing Degree Days 6 (Base 50)    
Moisture  
Dew Point 51 °F    
Average Humidity 84    
Maximum Humidity 100    
Minimum Humidity 44    
Precipitation  
Precipitation 0.00 in - - ()
Sea Level Pressure  
Sea Level Pressure 29.88 in    
Wind  
Wind Speed 8 mph (ESE)    
Max Wind Speed 13 mph    
Max Gust Speed -    
Visibility 7 miles    
Events Rain    
Averages and records for this station are not official NWS values.
T = Trace of Precipitation, MM = Missing Value Source: NWS Daily Summary

Daily Weather History Graph

Daily Weather History Graph

Search for Another Location

Airport or City:

Trip Planner

Search our weather history database for the weather conditions in past years. The results will help you decide how hot, cold, wet, or windy it might be!

Date:

Astronomy

May. 28, 2013 Rise Set
Actual Time 5:58 AM EDT 9:18 PM EDT
Civil Twilight 5:22 AM EDT 9:54 PM EDT
Nautical Twilight 4:35 AM EDT 10:42 PM EDT
Astronomical Twilight 3:36 AM EDT 11:41 PM EDT
Moon No Moon Rise 9:50 AM EDT (5/28)
Length of Visible Light 16h 32m
Length of Day
15h 19m
Waning Gibbous, 83% of the Moon is Illuminated
May 28
Waning Gibbous
May 31
Last Quarter
Jun 8
New
Jun 16
First Quarter
Jun 23
Full

Hourly Weather History & Observations

Time (EDT) Temp. Dew Point Humidity Pressure Visibility Wind Dir Wind Speed Gust Speed Precip Events Conditions
12:15 AM 59.0 °F 37.0 °F 44% 30.03 in 10.0 mi ESE 9.2 mph - N/A   Mostly Cloudy
12:34 AM 58.3 °F 36.7 °F 45% 30.02 in 10.0 mi ESE 10.4 mph - N/A   Mostly Cloudy
12:54 AM 57.6 °F 37.9 °F 48% 30.02 in 10.0 mi ESE 10.4 mph - N/A   Scattered Clouds
1:14 AM 57.2 °F 37.8 °F 48% 30.01 in 10.0 mi ESE 10.4 mph - N/A   Mostly Cloudy
1:34 AM 57.2 °F 37.6 °F 48% 30.01 in 10.0 mi East 8.1 mph - N/A   Scattered Clouds
1:55 AM 56.7 °F 38.3 °F 50% 30.00 in 10.0 mi East 10.4 mph - N/A   Clear
2:14 AM 56.3 °F 39.6 °F 53% 30.00 in 10.0 mi ESE 8.1 mph - N/A   Clear
2:34 AM 55.6 °F 39.9 °F 56% 30.00 in 10.0 mi East 9.2 mph - N/A   Scattered Clouds
2:54 AM 55.4 °F 40.1 °F 56% 29.98 in 10.0 mi East 9.2 mph - N/A   Mostly Cloudy
3:14 AM 55.4 °F 40.1 °F 56% 29.97 in 10.0 mi East 10.4 mph - N/A   Mostly Cloudy
3:35 AM 55.0 °F 41.2 °F 60% 29.96 in 10.0 mi ESE 9.2 mph - N/A   Mostly Cloudy
3:54 AM 54.7 °F 42.6 °F 64% 29.95 in 10.0 mi ESE 9.2 mph - N/A   Overcast
4:14 AM 54.5 °F 42.4 °F 64% 29.95 in 10.0 mi ESE 6.9 mph - N/A   Light Drizzle
4:35 AM 54.5 °F 42.8 °F 65% 29.95 in 10.0 mi ESE 6.9 mph - N/A   Mostly Cloudy
4:54 AM 54.7 °F 43.7 °F 66% 29.96 in 10.0 mi SE 6.9 mph - N/A   Overcast
5:14 AM 54.5 °F 44.6 °F 69% 29.95 in 10.0 mi East 6.9 mph - N/A   Overcast
5:35 AM 54.3 °F 45.5 °F 72% 29.96 in 10.0 mi East 5.8 mph - N/A   Overcast
5:54 AM 54.1 °F 46.6 °F 76% 29.96 in 10.0 mi ESE 8.1 mph - N/A   Overcast
6:14 AM 54.0 °F 46.8 °F 77% 29.95 in 10.0 mi ESE 10.4 mph - N/A   Overcast
6:35 AM 54.0 °F 46.4 °F 76% 29.95 in 10.0 mi ESE 9.2 mph - N/A   Overcast
6:54 AM 53.8 °F 46.4 °F 76% 29.95 in 10.0 mi ESE 10.4 mph - N/A   Overcast
7:14 AM 53.6 °F 46.8 °F 78% 29.94 in 10.0 mi East 9.2 mph - N/A   Overcast
7:35 AM 53.6 °F 46.9 °F 78% 29.94 in 10.0 mi ESE 9.2 mph - N/A   Overcast
7:54 AM 53.6 °F 46.9 °F 78% 29.94 in 10.0 mi East 9.2 mph - N/A   Overcast
8:15 AM 53.1 °F 47.3 °F 81% 29.93 in 10.0 mi East 11.5 mph - N/A   Overcast
8:34 AM 53.1 °F 47.5 °F 81% 29.94 in 10.0 mi ESE 5.8 mph - N/A   Overcast
8:54 AM 53.6 °F 47.8 °F 81% 29.92 in 10.0 mi East 10.4 mph - N/A   Overcast
9:15 AM 53.6 °F 47.5 °F 80% 29.91 in 10.0 mi ESE 12.7 mph - N/A   Overcast
9:34 AM 53.4 °F 48.7 °F 84% 29.91 in 7.0 mi ESE 9.2 mph - N/A Rain Light Rain
9:54 AM 52.7 °F 49.3 °F 88% 29.90 in 10.0 mi East 9.2 mph - N/A Rain Light Rain
10:15 AM 53.2 °F 49.3 °F 86% 29.90 in 10.0 mi East 9.2 mph - N/A   Overcast
10:34 AM 53.6 °F 49.6 °F 86% 29.90 in 10.0 mi ESE 9.2 mph - N/A   Overcast
10:54 AM 53.8 °F 49.8 °F 86% 29.90 in 10.0 mi ESE 6.9 mph - N/A   Overcast
11:15 AM 54.3 °F 50.2 °F 86% 29.90 in 10.0 mi East 6.9 mph - N/A   Overcast
11:34 AM 54.5 °F 50.2 °F 85% 29.90 in 10.0 mi East 6.9 mph - N/A   Overcast
11:54 AM 55.0 °F 50.5 °F 85% 29.89 in 10.0 mi ESE 8.1 mph - N/A   Overcast
12:15 PM 55.8 °F 51.3 °F 85% 29.88 in 10.0 mi East 8.1 mph - N/A   Overcast
12:34 PM 56.3 °F 52.9 °F 88% 29.88 in 4.0 mi East 8.1 mph - N/A Rain Light Rain
12:55 PM 55.4 °F 54.1 °F 96% 29.87 in 2.5 mi East 9.2 mph - N/A   Light Drizzle
1:14 PM 55.0 °F 54.7 °F 99% 29.85 in 2.5 mi East 10.4 mph - N/A Rain Light Rain
1:34 PM 55.2 °F 55.2 °F 100% 29.86 in 2.0 mi ESE 6.9 mph - N/A   Overcast
1:55 PM 55.8 °F 55.8 °F 100% 29.85 in 4.0 mi ESE 6.9 mph - N/A Rain Light Rain
2:14 PM 55.6 °F 55.6 °F 100% 29.85 in 5.0 mi ESE 9.2 mph - N/A   Overcast
2:34 PM 55.6 °F 55.6 °F 100% 29.84 in 3.0 mi ESE 9.2 mph - N/A Rain Rain
2:55 PM 55.9 °F 55.9 °F 100% 29.83 in 2.5 mi East 10.4 mph - N/A Rain Light Rain
3:14 PM 55.9 °F 55.9 °F 100% 29.84 in 3.0 mi East 6.9 mph - N/A Rain Light Rain
3:34 PM 56.5 °F 56.5 °F 100% 29.84 in 4.0 mi ESE 5.8 mph - N/A   Drizzle
3:55 PM 57.2 °F 57.2 °F 100% 29.83 in 7.0 mi ESE 9.2 mph - N/A   Overcast
4:14 PM 56.7 °F 56.7 °F 100% 29.83 in 5.0 mi East 9.2 mph - N/A   Overcast
4:34 PM 56.3 °F 56.3 °F 100% 29.83 in 7.0 mi ESE 8.1 mph - N/A   Overcast
4:54 PM 56.5 °F 56.5 °F 100% 29.83 in 4.0 mi East 6.9 mph - N/A Rain Light Rain
5:14 PM 56.5 °F 56.5 °F 100% 29.82 in 7.0 mi East 8.1 mph - N/A   Overcast
5:35 PM 56.8 °F 56.8 °F 100% 29.81 in 7.0 mi East 8.1 mph - N/A   Overcast
5:54 PM 56.8 °F 56.8 °F 100% 29.81 in 5.0 mi East 8.1 mph - N/A   Light Drizzle
6:14 PM 57.0 °F 57.0 °F 100% 29.81 in 5.0 mi East 6.9 mph - N/A Rain Light Rain
6:35 PM 57.2 °F 57.2 °F 100% 29.80 in 5.0 mi East 5.8 mph - N/A   Overcast
6:54 PM 57.4 °F 57.4 °F 100% 29.80 in 7.0 mi East 4.6 mph - N/A   Overcast
7:14 PM 57.4 °F 57.4 °F 100% 29.80 in 2.5 mi East 3.5 mph - N/A Rain Rain
7:35 PM 57.6 °F 57.6 °F 100% 29.80 in 4.0 mi East 3.5 mph - N/A Rain Rain
7:54 PM 57.7 °F 57.7 °F 100% 29.80 in 3.0 mi ESE 4.6 mph - N/A Rain Light Rain
8:14 PM 57.9 °F 57.9 °F 100% 29.79 in 2.5 mi East 3.5 mph - N/A   Overcast
8:35 PM 58.1 °F 58.1 °F 100% 29.79 in 1.0 mi Calm Calm - N/A   Overcast
8:54 PM 57.6 °F 57.6 °F 100% 29.80 in 1.0 mi Calm Calm - N/A   Overcast
9:14 PM 57.7 °F 57.7 °F 100% 29.80 in 1.5 mi Calm Calm - N/A   Overcast
9:35 PM 57.6 °F 57.6 °F 100% 29.78 in 2.5 mi Calm Calm - N/A   Overcast
9:54 PM 57.7 °F 57.7 °F 100% 29.77 in 1.2 mi East 3.5 mph - N/A   Overcast
10:14 PM 57.6 °F 57.6 °F 100% 29.80 in 1.0 mi Calm Calm - N/A   Overcast
10:34 PM 58.1 °F 58.1 °F 100% 29.80 in 3.0 mi Calm Calm - N/A   Overcast
10:54 PM 58.1 °F 58.1 °F 100% 29.78 in 2.0 mi Calm Calm - N/A   Overcast
11:15 PM 58.1 °F 58.1 °F 100% 29.78 in 2.0 mi East 3.5 mph - N/A   Overcast
11:34 PM 57.7 °F 57.7 °F 100% 29.79 in 2.5 mi Calm Calm - N/A   Overcast
11:55 PM 58.3 °F 58.3 °F 100% 29.78 in 2.0 mi Calm Calm - N/A   Overcast